Location: Newark
(53.2933°N, 6.3959°W)
Time: 12:17:47
(UTC+00:00)

Envisat - Pass Details

Date: 24 February 2020
Orbit: 764 x 766 km, 98.1° (Epoch: 04 April)

Event Time Altitude Azimuth Distance (km) Brightness Sun altitude
Rises 05:55:31 0° 24° (NNE) 3,248 6.6 -14.2°
Reaches altitude 10° 05:58:25 10° 41° (NE) 2,315 6.1 -13.8°
Maximum altitude 06:02:12 21° 89° (E) 1,695 5.9 -13.2°
Drops below altitude 10° 06:05:57 10° 137° (SE) 2,301 6.1 -12.6°
Sets 06:08:49 0° 153° (SSE) 3,222 6.6 -12.2°
